Change the Weather History Date:

Tuesday, February 4, 2014

  Actual Average (KPOE) Record (KPOE)
Temperature  
Mean Temperature 50 °F -  
Max Temperature 60 °F 58 °F 78 °F (2008)
Min Temperature 39 °F 41 °F 27 °F (2011)
Degree Days  
Heating Degree Days 16    
Moisture  
Dew Point 44 °F    
Average Humidity 95    
Maximum Humidity 97    
Minimum Humidity 91    
Precipitation  
Precipitation 0.00 in - - ()
Sea Level Pressure  
Sea Level Pressure 29.95 in    
Wind  
Wind Speed 4 mph (NE)    
Max Wind Speed 14 mph    
Max Gust Speed 22 mph    
Visibility 4 miles    
Events Fog , Rain , Thunderstorm    
Averages and records for this station are not official NWS values.
T = Trace of Precipitation, MM = Missing Value Source: NWS Daily Summary

Daily Weather History Graph

Daily Weather History Graph

Search for Another Location

Airport or City:

Trip Planner

Search our weather history database for the weather conditions in past years. The results will help you decide how hot, cold, wet, or windy it might be!

Date:

Astronomy

Feb. 04, 2014 Rise Set
Actual Time 7:00 AM CST 5:49 PM CST
Civil Twilight 6:35 AM CST 6:14 PM CST
Nautical Twilight 6:06 AM CST 6:43 PM CST
Astronomical Twilight 5:38 AM CST 7:11 PM CST
Moon 10:03 AM CST (2/4) 11:16 PM CST (2/4)
Length of Visible Light 11h 39m
Length of Day
10h 49m
Waxing Crescent, 29% of the Moon is Illuminated
Feb 4
Waxing Crescent
Feb 6
First Quarter
Feb 14
Full
Feb 22
Last Quarter
Mar 1
New

Hourly Weather History & Observations

Time (CST) Temp. Windchill Dew Point Humidity Pressure Visibility Wind Dir Wind Speed Gust Speed Precip Events Conditions
12:15 AM 39.6 °F 36.3 °F 38.3 °F 95% 30.06 in 2.5 mi ENE 4.6 mph - N/A   Overcast
12:35 AM 39.6 °F 36.3 °F 38.3 °F 95% 30.06 in 2.0 mi NE 4.6 mph - N/A   Overcast
12:55 AM 39.7 °F 37.6 °F 38.5 °F 95% 30.06 in 1.5 mi East 3.5 mph - N/A   Overcast
1:15 AM 39.7 °F - 38.7 °F 96% 30.06 in 1.2 mi Calm Calm - N/A   Overcast
1:35 AM 40.1 °F 38.0 °F 38.8 °F 95% 30.05 in 1.2 mi NE 3.5 mph - N/A   Overcast
1:55 AM 40.1 °F - 39.2 °F 97% 30.05 in 1.2 mi Calm Calm - N/A   Overcast
2:15 AM 40.3 °F 38.2 °F 39.2 °F 96% 30.03 in 1.2 mi NE 3.5 mph - N/A   Light Drizzle
2:35 AM 40.3 °F - 39.2 °F 96% 30.03 in 1.5 mi Calm Calm - N/A   Overcast
2:55 AM 40.5 °F - 39.4 °F 96% 30.03 in 1.2 mi Calm Calm - N/A   Overcast
3:15 AM 40.5 °F 37.3 °F 39.6 °F 97% 30.00 in 1.2 mi NE 4.6 mph - N/A Rain Light Rain
3:35 AM 41.0 °F - 40.1 °F 97% 30.01 in 1.2 mi Calm Calm - N/A   Overcast
3:55 AM 41.0 °F - 40.1 °F 97% 30.01 in 1.5 mi Calm Calm - N/A   Overcast
4:15 AM 41.4 °F 37.6 °F 40.5 °F 97% 30.00 in 2.0 mi ENE 5.8 mph - N/A   Overcast
4:35 AM 41.5 °F 38.6 °F 40.5 °F 96% 29.99 in 1.8 mi East 4.6 mph - N/A   Overcast
4:55 AM 41.9 °F 39.0 °F 40.6 °F 95% 29.99 in 2.5 mi East 4.6 mph - N/A   Overcast
5:15 AM 41.9 °F 39.0 °F 41.0 °F 97% 29.98 in 3.0 mi East 4.6 mph - N/A   Overcast
5:35 AM 42.1 °F 38.4 °F 41.0 °F 96% 29.98 in 2.5 mi East 5.8 mph - N/A   Overcast
5:55 AM 42.3 °F 40.5 °F 41.2 °F 96% 29.98 in 2.0 mi ENE 3.5 mph - N/A   Overcast
6:15 AM 42.4 °F 39.6 °F 41.4 °F 96% 29.97 in 1.2 mi East 4.6 mph - N/A   Overcast
6:35 AM 42.6 °F 39.9 °F 41.4 °F 95% 29.97 in 1.2 mi East 4.6 mph - N/A   Overcast
6:55 AM 42.8 °F 41.1 °F 41.7 °F 96% 29.98 in 1.2 mi East 3.5 mph - N/A   Overcast
7:15 AM 43.0 °F 40.3 °F 41.9 °F 96% 29.96 in 0.5 mi ENE 4.6 mph - N/A Rain Light Rain
7:35 AM 43.0 °F 41.3 °F 42.1 °F 97% 29.97 in 0.5 mi ENE 3.5 mph - N/A   Drizzle
7:55 AM 43.7 °F 42.1 °F 42.8 °F 97% 29.97 in 0.8 mi ENE 3.5 mph - N/A Rain Light Rain
8:15 AM 43.7 °F 41.1 °F 42.8 °F 97% 29.96 in 0.8 mi ENE 4.6 mph - N/A Rain Rain
8:35 AM 44.1 °F 42.5 °F 43.2 °F 97% 29.96 in 0.8 mi ENE 3.5 mph - N/A   Overcast
8:55 AM 44.6 °F 42.2 °F 43.7 °F 97% 29.96 in 0.5 mi East 4.6 mph - N/A Fog Fog
9:15 AM 45.1 °F 42.8 °F 44.2 °F 97% 29.96 in 1.2 mi East 4.6 mph - N/A   Overcast
9:35 AM 45.7 °F 43.4 °F 44.8 °F 97% 29.95 in 1.2 mi East 4.6 mph - N/A   Overcast
9:55 AM 46.2 °F - 45.3 °F 97% 29.95 in 0.5 mi Calm Calm - N/A Rain Light Rain
10:15 AM 47.1 °F - 46.2 °F 97% 29.95 in 2.5 mi ESE 6.9 mph - N/A   Overcast
10:35 AM 48.6 °F - 47.5 °F 96% 29.94 in 1.5 mi ESE 5.8 mph - N/A   Overcast
10:55 AM 49.5 °F - 48.4 °F 96% 29.93 in 2.5 mi ESE 5.8 mph - N/A   Overcast
11:15 AM 50.0 °F - 48.9 °F 96% 29.92 in 3.0 mi SE 4.6 mph - N/A Rain Rain
11:35 AM 50.5 °F - 49.5 °F 96% 29.90 in 2.5 mi SE 3.5 mph - N/A Rain Light Rain
11:55 AM 50.5 °F - 49.5 °F 96% 29.89 in 1.8 mi Calm Calm - N/A Rain Heavy Rain
12:15 PM 50.9 °F - 49.8 °F 96% 29.87 in 3.0 mi Calm Calm - N/A Rain Rain
12:35 PM 51.3 °F - 50.0 °F 95% 29.85 in 2.0 mi Calm Calm - N/A Rain , Thunderstorm Heavy Thunderstorms and Rain
12:55 PM 51.8 °F - 50.5 °F 95% 29.84 in 3.0 mi Calm Calm - N/A Rain Light Rain
1:15 PM 52.0 °F - 50.9 °F 96% 29.81 in 3.0 mi Calm Calm - N/A Rain , Thunderstorm Heavy Thunderstorms and Rain
1:35 PM 53.4 °F - 52.3 °F 96% 29.80 in 2.5 mi Calm Calm - N/A Rain Rain
1:55 PM 54.7 °F - 53.6 °F 96% 29.79 in 4.0 mi Calm Calm - N/A Rain , Thunderstorm Rain
2:15 PM 58.5 °F - 57.4 °F 96% 29.77 in 3.0 mi South 6.9 mph - N/A Rain Light Rain
2:35 PM 60.8 °F - 59.9 °F 97% 29.77 in 2.5 mi SSE 6.9 mph - N/A   Light Drizzle
2:55 PM 58.3 °F - 56.8 °F 95% 29.80 in 4.0 mi SW 5.8 mph 20.7 mph N/A Rain Rain
3:15 PM 56.1 °F - 54.0 °F 92% 29.82 in 2.5 mi WNW 13.8 mph 21.9 mph N/A Rain , Thunderstorm Thunderstorms and Rain
3:35 PM 53.6 °F - 51.8 °F 94% 29.83 in 3.0 mi NW 8.1 mph - N/A Rain Light Rain
3:55 PM 50.7 °F - 48.9 °F 94% 29.85 in 2.5 mi NNW 11.5 mph - N/A Rain , Thunderstorm Heavy Thunderstorms and Rain
4:15 PM 48.2 °F - 46.4 °F 93% 29.86 in 2.5 mi NNW 12.7 mph - N/A Rain Rain
4:35 PM 46.0 °F 42.5 °F 44.1 °F 93% 29.87 in 4.0 mi NW 6.9 mph - N/A Rain Rain
4:55 PM 45.7 °F 40.6 °F 43.9 °F 93% 29.88 in 7.0 mi NNW 10.4 mph - N/A   Overcast
5:15 PM 44.6 °F 38.8 °F 42.4 °F 92% 29.88 in 7.0 mi NNW 11.5 mph 17.3 mph N/A Rain Rain
5:35 PM 44.1 °F 39.0 °F 42.4 °F 94% 29.90 in 10.0 mi North 9.2 mph - N/A   Light Drizzle
6:15 PM 43.0 °F 39.5 °F 41.5 °F 95% 29.90 in 10.0 mi NNW 5.8 mph - N/A   Overcast
6:35 PM 42.6 °F 39.9 °F 40.8 °F 93% 29.92 in 10.0 mi NNW 4.6 mph - N/A   Overcast
6:55 PM 42.4 °F - 40.5 °F 93% 29.92 in 10.0 mi Calm Calm - N/A   Overcast
7:15 PM 42.8 °F - 40.8 °F 93% 29.94 in 10.0 mi Calm Calm - N/A   Overcast
7:35 PM 42.6 °F 39.9 °F 40.8 °F 93% 29.95 in 10.0 mi West 4.6 mph - N/A   Overcast
7:55 PM 42.8 °F 40.1 °F 41.0 °F 93% 29.96 in 10.0 mi WNW 4.6 mph - N/A   Overcast
8:15 PM 42.8 °F 40.1 °F 41.0 °F 93% 29.98 in 10.0 mi NW 4.6 mph - N/A   Overcast
8:35 PM 42.1 °F 40.2 °F 40.5 °F 94% 29.99 in 10.0 mi NNW 3.5 mph - N/A   Mostly Cloudy
8:55 PM 42.4 °F - 41.0 °F 95% 30.01 in 10.0 mi Calm Calm - N/A   Mostly Cloudy
9:15 PM 42.3 °F 40.5 °F 40.3 °F 93% 30.01 in 10.0 mi NW 3.5 mph - N/A   Overcast
9:35 PM 41.2 °F 39.2 °F 39.6 °F 94% 30.03 in 10.0 mi NW 3.5 mph - N/A   Scattered Clouds
9:55 PM 41.4 °F - 40.1 °F 95% 30.04 in 10.0 mi Calm Calm - N/A   Mostly Cloudy
10:15 PM 41.9 °F 35.9 °F 40.1 °F 93% 30.06 in 10.0 mi NW 10.4 mph 16.1 mph N/A   Overcast
10:35 PM 42.1 °F 36.1 °F 40.1 °F 93% 30.06 in 10.0 mi NNW 10.4 mph - N/A   Overcast
10:55 PM 42.3 °F 37.3 °F 40.3 °F 93% 30.08 in 10.0 mi NW 8.1 mph - N/A   Overcast
11:15 PM 42.3 °F 37.3 °F 39.9 °F 91% 30.09 in 10.0 mi NW 8.1 mph - N/A   Mostly Cloudy
11:35 PM 41.2 °F 38.2 °F 39.2 °F 93% 30.09 in 10.0 mi NW 4.6 mph - N/A   Scattered Clouds
11:55 PM 40.1 °F 36.1 °F 38.3 °F 93% 30.09 in 10.0 mi NNW 5.8 mph - N/A   Clear